User: anonymous
Location: Unspecified
(0.0000°N, 0.0000°E)
Time: 14:00:50
(UTC+02:00)
Language:

Ariane 42L R/B - Orbit

View from above orbital plane
View from above orbital plane
View from above satellite
View from above satellite

Ground track
Ground track

The orbit data is extracted from the following two-line orbital elements,

1 26299U 00020B   14108.84242425  .00004450  00000-0  15358-2 0  9262
2 26299 007.4249 195.9346 6058653 114.4005 027.1926 03.92505681172490
Epoch (UTC): 18 April 2014 20:13:05
Eccentricity: 0.6058653
inclination: 7.4249°
perigee height: 313 km
apogee height: 20883 km
right ascension of ascending node: 195.9346°
argument of perigee: 114.4005°
revolutions per day: 3.92505681
mean anomaly at epoch: 27.1926°
orbit number at epoch: 17249

The dashed part of the orbit path shows where the satellite is in the earth's shadow,  

DLR